Chicopee, MA

10:03 AM EST on February 24, 2018 (GMT -0500)
Westover Air Reserve Base / Metropolitan Airport

Weather History for KCEF - January, 2015

Change the Weather History Date:

Wednesday, January 28, 2015

  Actual Average Record
Temperature  
Mean Temperature 18 °F -  
Max Temperature 25 °F 30 °F 55 °F (2002)
Min Temperature 5 °F 14 °F -9 °F (2003)
Degree Days  
Heating Degree Days 48    
Moisture  
Dew Point 2 °F    
Average Humidity 53    
Maximum Humidity 61    
Minimum Humidity 45    
Precipitation  
Precipitation 0.00 in - - ()
Sea Level Pressure  
Sea Level Pressure 30.04 in    
Wind  
Wind Speed 11 mph (North)    
Max Wind Speed 17 mph    
Max Gust Speed 23 mph    
Visibility 10 miles    
Events      
Averages and records for this station are not official NWS values.
T = Trace of Precipitation, MM = Missing Value Source: NWS Daily Summary

Daily Weather History Graph

Daily Weather History Graph

Search for Another Location

Airport or City:

Trip Planner

Search our weather history database for the weather conditions in past years. The results will help you decide how hot, cold, wet, or windy it might be!

Date:

Astronomy

Jan. 28, 2015 Rise Set
Actual Time 7:07 AM EST 4:59 PM EST
Civil Twilight 6:37 AM EST 5:29 PM EST
Nautical Twilight 6:03 AM EST 6:02 PM EST
Astronomical Twilight 5:30 AM EST 6:35 PM EST
Moon 12:01 PM EST (1/28) 1:35 AM EST (1/28)
Length of Visible Light 10h 51m
Length of Day
9h 51m
Waxing Gibbous, 66% of the Moon is Illuminated
Jan 28
Waxing Gibbous
Feb 3
Full
Feb 11
Last Quarter
Feb 18
New
Feb 25
First Quarter

Hourly Weather History & Observations

Time (EST) Temp. Windchill Dew Point Humidity Pressure Visibility Wind Dir Wind Speed Gust Speed Precip Events Conditions
12:58 AM 13.8 °F -1.1 °F 0.1 °F 55% 29.78 in 10.0 mi North 13.8 mph - N/A   Overcast
1:58 AM 13.8 °F -1.1 °F -0.2 °F 54% 29.79 in 10.0 mi North 13.8 mph 19.6 mph N/A   Mostly Cloudy
2:58 AM 13.6 °F -1.3 °F -0.0 °F 55% 29.82 in 10.0 mi North 13.8 mph - N/A   Overcast
3:58 AM 13.1 °F -1.4 °F -0.4 °F 55% 29.85 in 10.0 mi North 12.7 mph - N/A   Mostly Cloudy
4:58 AM 12.6 °F -1.4 °F -1.1 °F 54% 29.88 in 10.0 mi North 11.5 mph 23.0 mph N/A   Clear
5:58 AM 12.9 °F 0.7 °F -0.8 °F 54% 29.91 in 10.0 mi North 9.2 mph - N/A   Overcast
6:58 AM 12.4 °F 0.9 °F -0.9 °F 55% 29.96 in 10.0 mi North 8.1 mph - N/A   Partly Cloudy
7:58 AM 12.4 °F 2.0 °F -0.6 °F 56% 29.99 in 10.0 mi North 6.9 mph - N/A   Scattered Clouds
8:58 AM 14.0 °F -0.2 °F -0.6 °F 52% 30.01 in 10.0 mi North 12.7 mph - N/A   Partly Cloudy
9:58 AM 16.5 °F 4.3 °F 1.8 °F 52% 30.01 in 10.0 mi North 10.4 mph - N/A   Mostly Cloudy
10:58 AM 18.7 °F 3.6 °F 2.8 °F 50% 30.02 in 10.0 mi NNE 17.3 mph - N/A   Mostly Cloudy
11:58 AM 19.6 °F 6.2 °F 4.3 °F 52% 30.02 in 10.0 mi NNE 13.8 mph - N/A   Mostly Cloudy
12:58 PM 20.7 °F 11.0 °F 5.7 °F 53% 30.03 in 10.0 mi NNE 8.1 mph - N/A   Mostly Cloudy
1:58 PM 23.4 °F 11.1 °F 6.4 °F 48% 30.04 in 10.0 mi NNE 13.8 mph - N/A   Partly Cloudy
2:58 PM 25.0 °F 14.2 °F 7.3 °F 47% 30.06 in 10.0 mi North 11.5 mph - N/A   Clear
3:58 PM 25.9 °F 16.6 °F 7.7 °F 46% 30.08 in 10.0 mi North 9.2 mph - N/A   Clear
4:58 PM 23.4 °F 16.2 °F 8.2 °F 53% 30.12 in 10.0 mi NW 5.8 mph - N/A   Clear
5:58 PM 21.0 °F 9.3 °F 3.9 °F 48% 30.15 in 10.0 mi NNW 11.5 mph - N/A   Clear
6:58 PM 18.7 °F 9.5 °F 2.5 °F 49% 30.19 in 10.0 mi NNW 6.9 mph - N/A   Clear
7:58 PM 14.9 °F 7.5 °F 0.7 °F 53% 30.22 in 10.0 mi West 4.6 mph - N/A   Clear
8:58 PM 10.9 °F - -0.0 °F 61% 30.24 in 10.0 mi Calm Calm - N/A   Clear
9:58 PM 16.3 °F 5.7 °F -1.8 °F 45% 30.25 in 10.0 mi North 8.1 mph - N/A   Clear
10:58 PM 10.4 °F 4.0 °F -1.5 °F 59% 30.27 in 10.0 mi NE 3.5 mph - N/A   Clear
11:58 PM 5.5 °F -1.5 °F -5.3 °F 61% 30.29 in 10.0 mi NNW 3.5 mph - N/A   Clear